Temp
73 77 82 83 83 83 83 83 83 83 83 82 83 83 83 83 83 83 82 83 84 84 84 84 84 84 84 84 84 84 84 83 83 83 83 83 82 82 83 83 82 81 82
76 78 82 83 83 83 83 83 83 83 83 83 83 83 83 83 83 83 83 83 84 84 84 84 84 84 84 84 84 84 84 83 83 84 84 84 83 83 83 83 82 81 82
77 78 80 82 83 83 82 83 83 83 83 83 82 83 83 83 83 83 84 84 84 84 84 84 84 84 84 84 84 84 82 82 82 82 82 78 80 83 83 82 82 82 82
77 76 78 82 82 83 82 83 83 83 83 83 83 83 83 83 83 84 84 84 84 84 84 84 84 84 84 84 83 83 83 82 82 81 75 77 82 83 83 83 82 82 81
75 76 80 82 83 83 83 83 83 83 83 83 83 83 83 83 84 84 84 84 84 84 84 84 84 84 83 83 83 83 82 82 82 77 74 74 76 82 82 82 82 82 81
77 78 81 83 83 82 82 82 82 83 83 83 83 83 83 84 84 83 84 84 84 84 84 84 84 84 83 83 83 82 82 81 80 75 74 76 76 82 82 82 82 81 81
75 76 79 82 83 83 83 82 82 83 83 83 83 83 83 83 83 83 83 83 84 83 84 84 84 84 83 83 83 83 82 81 74 73 74 75 76 82 82 82 81 81 81
75 75 78 82 82 82 83 82 82 83 83 83 83 83 83 83 83 83 83 83 84 83 83 84 84 83 83 83 83 82 82 81 78 74 75 74 79 81 82 81 81 81 81
77 75 75 76 80 83 83 83 83 83 83 83 83 83 83 83 83 83 83 82 82 83 83 83 83 83 83 83 83 83 83 82 74 74 78 75 80 82 82 81 81 81 81
75 75 74 74 75 75 77 83 83 83 83 83 83 83 83 83 83 83 81 82 82 83 83 83 83 83 83 83 83 83 83 82 75 75 75 75 80 82 82 81 81 81 81
74 72 73 73 73 73 75 79 82 83 83 83 82 83 81 75 76 80 81 82 83 83 83 83 83 83 82 83 83 83 80 74 74 74 74 79 81 82 82 81 80 80 80
70 71 71 71 72 72 80 75 75 77 75 73 73 75 74 74 74 80 80 82 84 84 83 83 83 83 81 75 76 80 75 75 74 73 73 80 81 81 81 80 80 80 79
71 72 72 71 72 72 75 72 72 73 73 71 72 73 73 74 74 72 71 71 71 78 76 78 77 76 75 74 74 74 75 74 73 74 76 80 80 81 80 80 79 79 79
72 74 74 74 73 73 74 73 73 73 72 72 72 73 71 70 71 70 69 70 70 72 73 73 73 74 74 76 75 74 74 74 72 73 75 80 80 81 80 80 79 79 78
73 74 75 75 73 74 73 73 73 73 73 73 72 73 72 69 69 71 69 69 71 71 71 71 72 73 73 75 76 76 75 74 73 73 73 81 80 80 80 80 80 79 79
75 75 75 75 75 75 73 73 73 73 74 71 72 72 73 70 71 71 69 70 71 71 71 71 72 73 73 74 75 77 76 75 74 73 73 76 80 80 80 80 80 80 79
75 76 75 76 76 75 75 74 73 73 76 72 72 74 74 73 72 72 71 71 72 72 72 72 72 72 72 74 74 76 75 75 74 74 74 74 76 80 80 80 80 80 79
75 75 76 82 77 76 75 75 76 74 75 74 74 73 74 75 74 72 72 72 73 73 72 72 72 71 71 72 72 73 73 74 74 74 74 74 73 75 78 80 79 79 79
77 75 75 77 76 76 75 75 75 76 76 76 75 76 78 78 77 73 74 73 73 73 73 73 72 72 71 72 73 73 73 72 73 77 74 73 72 73 72 78 79 79 79
78 78 77 76 75 75 75 75 75 75 76 76 75 77 77 76 76 74 74 73 73 73 72 72 72 72 72 72 79 75 72 72 72 72 73 75 72 73 72 71 73 74 79
78 76 76 74 73 73 72 73 71 73 74 75 75 78 78 78 78 75 73 72 72 72 72 74 72 71 71 71 71 71 71 71 71 72 72 72 72 73 71 71 71 70 71
77 76 74 74 72 73 74 74 75 74 75 75 75 76 78 79 78 76 73 72 71 71 72 72 72 70 70 69 70 68 66 70 70 71 70 72 71 71 72 72 71 70 70
76 75 76 74 73 74 74 75 73 75 75 74 74 74 77 78 78 78 76 74 71 71 71 71 71 72 70 69 69 70 64 65 63 67 68 68 70 67 69 71 71 71 70
77 78 78 76 73 74 74 75 74 74 73 73 73 74 76 78 79 79 78 76 72 69 70 71 71 68 69 69 68 68 66 66 65 65 66 66 67 68 66 66 71 70 70
79 78 78 77 74 73 73 75 74 73 73 73 73 74 74 76 78 79 77 76 73 70 69 70 69 68 67 67 66 65 64 62 61 62 63 65 66 66 67 66 66 67 68
80 79 78 77 76 73 74 74 74 74 72 72 72 72 73 74 75 77 77 75 74 72 70 69 67 67 65 65 64 63 65 66 64 62 60 60 60 65 66 66 66 66 67
MSLP
1013.67 1013.37 1013.26 1013.44 1013.49 1013.59 1013.72 1013.78 1013.82 1014.04 1014.17 1014.32 1014.53 1014.61 1014.63 1014.65 1014.81 1014.97 1014.99 1015.06 1015.07 1015.17 1015.30 1015.27 1015.47 1015.39 1015.36 1015.49 1015.64 1015.73 1015.74 1015.85 1015.85 1015.84 1015.77 1015.85 1016.12 1016.29 1016.42 1016.50 1016.70 1016.72 1016.72
1013.34 1013.45 1013.45 1013.50 1013.70 1013.77 1013.86 1013.97 1014.06 1014.28 1014.42 1014.52 1014.61 1014.81 1014.92 1015.00 1015.22 1015.23 1015.33 1015.39 1015.30 1015.40 1015.55 1015.70 1015.74 1015.76 1015.81 1015.89 1016.02 1016.13 1016.24 1016.35 1016.24 1016.20 1016.15 1016.20 1016.32 1016.45 1016.52 1016.72 1016.79 1016.93 1017.05
1013.48 1013.57 1013.66 1013.70 1013.81 1014.03 1014.17 1014.23 1014.31 1014.44 1014.65 1014.73 1014.91 1015.04 1015.27 1015.35 1015.41 1015.51 1015.55 1015.57 1015.59 1015.72 1015.89 1015.89 1015.88 1016.03 1016.07 1016.23 1016.42 1016.50 1016.65 1016.62 1016.52 1016.45 1016.51 1016.69 1016.86 1016.81 1016.87 1017.10 1017.29 1017.36 1017.27
1013.45 1013.62 1013.71 1013.86 1013.94 1014.07 1014.26 1014.47 1014.59 1014.65 1014.82 1014.87 1014.98 1015.20 1015.39 1015.52 1015.59 1015.61 1015.73 1015.83 1015.86 1015.95 1016.08 1016.18 1016.20 1016.22 1016.30 1016.45 1016.62 1016.73 1016.82 1016.91 1016.90 1017.06 1017.27 1017.07 1016.97 1017.12 1017.40 1017.68 1017.71 1017.62 1017.62
1013.74 1013.82 1013.88 1014.03 1014.23 1014.28 1014.44 1014.55 1014.69 1014.81 1014.83 1014.92 1015.02 1015.30 1015.48 1015.67 1015.70 1015.81 1015.86 1015.98 1016.02 1016.10 1016.24 1016.40 1016.57 1016.58 1016.61 1016.62 1016.80 1016.86 1016.94 1017.11 1017.33 1017.71 1017.64 1017.54 1017.50 1017.68 1017.80 1017.90 1017.82 1017.80 1017.82
1013.94 1013.94 1014.05 1014.21 1014.42 1014.56 1014.63 1014.80 1014.94 1015.06 1015.15 1015.23 1015.22 1015.54 1015.73 1015.82 1015.92 1016.14 1016.17 1016.14 1016.14 1016.27 1016.31 1016.46 1016.68 1016.83 1016.82 1016.95 1016.99 1017.11 1017.41 1017.49 1017.71 1017.89 1017.92 1017.82 1017.91 1017.93 1017.96 1017.92 1018.00 1017.98 1018.19
1014.21 1014.14 1014.30 1014.42 1014.57 1014.78 1014.80 1014.92 1015.19 1015.29 1015.37 1015.43 1015.43 1015.60 1015.81 1015.99 1016.11 1016.16 1016.46 1016.54 1016.50 1016.60 1016.60 1016.72 1016.86 1017.02 1017.10 1017.30 1017.35 1017.35 1017.55 1017.75 1018.08 1018.20 1018.20 1018.10 1018.10 1017.99 1018.04 1018.13 1018.22 1018.35 1018.55
1014.27 1014.42 1014.47 1014.61 1014.79 1014.89 1015.03 1015.17 1015.35 1015.47 1015.61 1015.76 1015.96 1016.08 1016.13 1016.18 1016.22 1016.36 1016.59 1016.67 1016.72 1016.81 1016.87 1016.97 1017.08 1017.19 1017.46 1017.54 1017.59 1017.62 1017.80 1018.00 1018.16 1018.37 1018.41 1018.41 1018.26 1018.26 1018.31 1018.46 1018.49 1018.55 1018.71
1014.32 1014.50 1014.78 1014.85 1014.94 1014.97 1015.21 1015.36 1015.55 1015.70 1015.87 1015.92 1016.01 1016.13 1016.27 1016.33 1016.39 1016.40 1016.54 1016.68 1016.77 1016.93 1017.08 1017.19 1017.20 1017.41 1017.66 1017.75 1017.81 1017.87 1017.98 1018.21 1018.51 1018.60 1018.54 1018.61 1018.44 1018.43 1018.58 1018.66 1018.73 1018.78 1018.79
1014.74 1014.77 1015.02 1015.18 1015.21 1015.36 1015.40 1015.52 1015.68 1015.92 1016.07 1016.25 1016.31 1016.39 1016.41 1016.31 1016.32 1016.50 1016.65 1016.70 1016.83 1017.03 1017.20 1017.32 1017.39 1017.61 1017.74 1017.88 1018.05 1018.11 1018.17 1018.48 1018.70 1018.75 1018.82 1018.78 1018.64 1018.69 1018.90 1018.94 1018.96 1018.89 1018.81
1015.23 1015.23 1015.21 1015.32 1015.41 1015.57 1015.75 1015.82 1015.88 1016.09 1016.23 1016.30 1016.28 1016.32 1016.43 1016.53 1016.53 1016.63 1016.83 1016.83 1016.97 1017.11 1017.28 1017.44 1017.59 1017.68 1017.90 1018.11 1018.29 1018.38 1018.59 1018.88 1018.93 1019.02 1019.10 1018.97 1018.95 1018.98 1019.10 1019.15 1019.07 1019.04 1018.99
1015.46 1015.39 1015.49 1015.49 1015.61 1015.76 1015.73 1016.01 1016.16 1016.23 1016.41 1016.48 1016.51 1016.51 1016.51 1016.53 1016.63 1016.86 1016.85 1016.89 1016.94 1017.18 1017.44 1017.62 1017.77 1017.95 1018.19 1018.55 1018.66 1018.70 1018.95 1019.12 1019.31 1019.35 1019.35 1019.15 1019.14 1019.20 1019.30 1019.43 1019.44 1019.40 1019.34
1015.25 1015.34 1015.45 1015.67 1015.65 1015.85 1015.86 1016.26 1016.26 1016.28 1016.46 1016.65 1016.77 1016.64 1016.60 1016.67 1016.78 1017.05 1017.32 1017.54 1017.57 1017.60 1017.86 1017.97 1018.05 1018.26 1018.55 1018.80 1018.95 1019.03 1019.10 1019.27 1019.47 1019.54 1019.37 1019.23 1019.31 1019.42 1019.53 1019.56 1019.61 1019.64 1019.66
1015.13 1015.25 1015.35 1015.49 1015.71 1015.88 1015.90 1016.20 1016.38 1016.28 1016.44 1016.56 1016.75 1016.80 1016.71 1016.95 1017.09 1017.33 1017.55 1017.81 1017.73 1017.98 1018.23 1018.33 1018.40 1018.45 1018.62 1018.80 1018.93 1019.15 1019.28 1019.44 1019.62 1019.73 1019.57 1019.53 1019.51 1019.56 1019.64 1019.83 1019.91 1019.95 1020.04
1015.11 1015.19 1015.24 1015.54 1015.79 1015.77 1015.97 1016.10 1016.33 1016.31 1016.55 1016.71 1016.77 1016.84 1016.77 1017.15 1017.35 1017.38 1017.70 1017.98 1017.89 1018.05 1018.32 1018.52 1018.61 1018.67 1018.79 1018.92 1018.98 1019.10 1019.29 1019.57 1019.68 1019.82 1019.80 1019.70 1019.80 1019.85 1019.94 1020.12 1020.17 1020.24 1020.25
1014.91 1014.98 1015.11 1015.38 1015.38 1015.66 1016.04 1015.98 1016.15 1016.24 1016.52 1016.82 1016.86 1016.87 1016.81 1016.98 1017.24 1017.55 1017.93 1018.08 1018.18 1018.22 1018.42 1018.64 1018.72 1018.72 1018.84 1018.93 1018.93 1019.01 1019.19 1019.46 1019.65 1019.78 1019.95 1019.92 1019.90 1019.98 1020.07 1020.22 1020.35 1020.50 1020.56
1014.59 1014.76 1015.06 1015.07 1015.29 1015.63 1015.78 1015.88 1016.07 1016.25 1016.45 1016.77 1016.82 1016.97 1016.94 1017.04 1017.06 1017.34 1017.90 1018.17 1018.11 1018.31 1018.45 1018.67 1018.87 1018.99 1019.23 1019.16 1019.21 1018.86 1019.09 1019.27 1019.55 1019.83 1020.05 1020.08 1019.96 1019.95 1020.03 1020.20 1020.37 1020.57 1020.71
1014.30 1014.85 1014.93 1015.09 1015.28 1015.57 1015.59 1015.71 1015.94 1016.25 1016.44 1016.60 1016.67 1016.61 1016.76 1016.90 1016.97 1017.18 1017.69 1017.93 1017.85 1018.17 1018.52 1018.73 1018.97 1019.19 1019.26 1019.26 1019.17 1019.09 1019.15 1019.32 1019.70 1019.87 1020.01 1019.97 1019.92 1019.96 1020.11 1020.28 1020.43 1020.55 1020.61
1013.93 1014.52 1014.91 1015.02 1015.33 1015.42 1015.46 1015.65 1015.87 1015.99 1016.25 1016.37 1016.50 1016.51 1016.35 1016.43 1016.68 1017.00 1017.21 1017.47 1017.74 1017.90 1018.26 1018.61 1018.87 1019.17 1019.27 1019.27 1019.26 1019.25 1019.32 1019.50 1019.72 1019.76 1019.91 1019.90 1020.00 1020.16 1020.34 1020.32 1020.40 1020.57 1020.60
1013.50 1014.18 1014.56 1014.83 1015.21 1015.41 1015.62 1015.72 1015.68 1015.95 1016.15 1016.29 1016.57 1016.61 1016.54 1016.60 1016.69 1017.01 1017.29 1017.62 1017.84 1018.15 1018.41 1018.55 1018.82 1018.98 1019.09 1019.24 1019.19 1019.34 1019.62 1019.76 1019.73 1019.81 1019.82 1019.75 1019.94 1020.06 1020.27 1020.34 1020.37 1020.45 1020.46
1013.50 1014.18 1014.58 1014.84 1015.14 1015.44 1015.69 1016.05 1016.16 1016.16 1016.27 1016.49 1016.49 1016.30 1016.42 1016.56 1016.69 1017.05 1017.53 1017.98 1018.18 1018.40 1018.42 1018.44 1018.65 1018.99 1019.19 1019.17 1019.55 1019.87 1019.84 1019.80 1019.80 1019.80 1019.60 1019.74 1019.66 1019.90 1020.14 1020.15 1020.25 1020.33 1020.31
1013.38 1013.90 1014.53 1014.69 1015.07 1015.41 1015.39 1015.65 1015.81 1015.96 1016.22 1016.33 1016.28 1016.37 1016.40 1016.25 1016.81 1017.19 1017.69 1018.23 1018.35 1018.77 1018.57 1018.64 1018.72 1019.15 1019.26 1019.33 1019.69 1020.16 1020.49 1020.11 1019.65 1019.45 1019.54 1019.60 1019.67 1019.75 1019.75 1019.75 1019.95 1020.11 1020.04
1013.28 1013.60 1014.08 1014.59 1014.86 1015.23 1015.46 1015.55 1015.82 1016.05 1016.31 1016.60 1016.66 1016.61 1016.46 1016.49 1016.62 1016.93 1017.28 1017.75 1018.09 1018.47 1018.62 1018.71 1018.77 1019.01 1019.44 1019.56 1019.61 1019.99 1020.80 1020.72 1020.36 1019.60 1019.34 1019.40 1019.53 1019.59 1019.55 1019.51 1019.55 1019.61 1019.65
1012.81 1013.21 1013.58 1014.19 1014.77 1015.07 1015.44 1015.58 1015.66 1016.02 1016.43 1016.51 1016.58 1016.62 1016.53 1016.52 1016.59 1016.86 1017.07 1017.37 1017.84 1018.26 1018.50 1018.65 1018.84 1018.99 1019.28 1019.69 1019.81 1019.96 1020.18 1020.51 1020.69 1020.51 1019.55 1019.41 1019.43 1019.28 1019.34 1019.37 1019.16 1019.09 1019.15
1012.39 1012.91 1013.24 1013.80 1014.53 1014.91 1015.24 1015.51 1015.73 1016.07 1016.22 1016.35 1016.68 1016.78 1016.79 1016.70 1016.58 1016.80 1017.04 1017.33 1017.79 1018.23 1018.54 1018.67 1018.84 1019.00 1019.36 1019.79 1020.03 1020.20 1020.31 1020.51 1020.53 1020.81 1020.51 1019.85 1019.46 1019.05 1018.88 1018.90 1018.82 1018.71 1018.72
1011.87 1012.58 1012.97 1013.54 1014.02 1014.57 1015.08 1015.45 1015.77 1016.06 1016.40 1016.68 1017.01 1017.21 1017.17 1017.14 1017.02 1016.95 1017.18 1017.37 1017.69 1018.11 1018.54 1018.75 1018.97 1019.19 1019.49 1019.70 1019.89 1020.05 1020.28 1020.42 1020.51 1020.67 1021.05 1020.55 1020.28 1019.27 1018.70 1018.49 1018.45 1018.40 1018.35
Wind_Speed
4 5 12 13 13 14 13 13 11 14 13 13 12 12 11 12 12 12 14 13 13 12 12 14 15 14 14 16 16 17 17 16 16 14 13 13 12 13 13 12 11 7 11
6 6 11 13 13 14 14 14 13 13 12 12 12 13 11 12 13 14 14 13 13 12 12 13 14 14 14 13 15 15 16 15 14 14 14 14 13 12 11 10 10 8 9
8 6 8 12 13 14 12 12 13 13 12 11 12 13 13 12 14 14 13 13 12 12 12 13 13 13 13 14 13 13 12 12 13 13 13 5 5 10 10 9 9 10 9
8 6 6 12 13 14 15 13 13 13 13 14 13 13 13 13 11 13 13 13 12 11 12 12 13 13 13 12 13 11 10 11 9 9 5 3 6 10 10 9 9 9 8
7 6 9 14 13 13 13 13 13 13 13 14 14 13 12 13 12 12 11 11 11 12 11 11 12 11 11 12 11 10 8 7 6 7 3 4 5 7 8 9 7 7 8
8 6 12 14 14 13 13 13 11 12 11 11 12 12 11 11 10 11 10 10 9 10 10 10 10 10 10 10 9 9 8 4 8 4 4 3 4 7 8 8 7 7 6
7 5 7 12 14 13 13 13 12 11 11 11 11 11 11 10 8 8 8 8 9 9 9 10 10 9 8 8 7 6 9 9 5 3 3 3 3 8 7 7 6 5 5
9 6 6 13 13 13 12 12 12 11 10 9 8 7 7 7 7 7 5 5 6 8 9 9 10 9 8 7 6 9 8 8 5 4 3 3 7 6 7 4 3 4 5
8 6 5 6 9 13 12 11 11 10 10 9 8 7 6 5 4 5 5 5 8 9 8 8 8 6 7 6 7 5 9 8 4 3 4 2 5 6 5 4 4 2 2
5 5 5 5 4 4 5 10 9 9 8 7 6 5 5 4 4 5 5 5 8 9 9 9 8 7 6 7 6 5 9 8 4 3 2 2 5 7 4 3 2 1 2
3 4 4 5 4 4 3 3 6 6 6 6 5 5 3 1 0 4 5 8 11 12 12 10 9 9 7 6 4 4 6 3 3 2 1 4 4 5 4 4 3 2 2
5 5 5 5 5 4 3 2 2 1 3 2 2 3 4 3 3 3 7 11 11 12 12 11 10 8 5 3 2 4 3 4 2 2 1 4 5 7 6 6 7 7 7
6 4 6 5 5 5 3 3 1 1 2 1 1 2 4 3 4 3 3 3 4 7 2 5 5 3 4 2 1 1 1 3 2 1 3 6 7 7 7 7 7 7 6
7 7 6 5 5 5 3 3 3 3 2 1 1 3 4 3 4 3 2 2 3 3 4 2 2 3 3 3 2 2 3 3 3 2 4 7 7 7 7 7 6 5 6
7 6 7 6 6 5 4 3 3 3 3 3 1 2 3 4 3 3 2 1 1 3 2 1 2 1 0 1 2 2 3 4 4 2 1 7 7 7 6 6 5 4 4
7 7 6 7 7 5 4 4 4 3 3 4 2 4 4 4 4 4 3 2 3 3 1 2 2 2 2 3 4 4 4 4 5 4 2 3 8 7 6 6 5 4 4
8 7 7 7 7 6 6 5 4 3 3 3 4 5 5 4 4 4 3 3 3 3 2 2 2 1 2 3 5 4 4 5 4 4 3 2 4 9 9 8 8 7 5
8 10 7 7 6 6 6 4 3 4 4 4 4 4 6 5 5 4 4 3 3 3 3 3 2 1 3 3 2 3 3 3 4 5 4 4 3 3 7 10 9 9 8
12 10 8 7 8 7 4 3 3 5 4 4 2 3 5 4 4 4 3 2 3 1 2 3 2 2 3 3 4 3 3 4 3 4 5 5 5 4 3 8 10 10 10
13 12 9 7 7 7 4 1 2 2 3 3 3 3 5 4 6 4 2 1 3 3 2 2 3 1 2 3 3 2 1 1 3 4 4 5 4 5 4 5 4 5 13
11 10 9 8 6 4 2 2 1 2 2 2 4 2 6 5 4 5 3 2 3 3 3 3 3 3 2 2 3 3 1 2 4 4 4 4 6 5 5 5 4 3 4
15 12 8 8 7 4 3 2 2 3 2 1 1 1 2 5 7 7 7 5 6 4 3 3 2 2 1 2 3 3 1 4 2 4 4 6 6 3 6 7 7 6 6
14 13 11 8 8 6 5 3 2 4 3 2 1 1 2 5 6 6 6 5 5 3 3 2 2 3 2 0 2 3 2 3 2 2 3 4 5 4 4 6 7 7 6
16 13 12 10 8 7 7 3 5 5 4 3 3 2 2 4 6 5 5 5 5 3 4 3 3 2 3 1 2 3 3 3 3 4 3 3 4 5 6 4 6 6 6
15 14 12 11 8 6 7 5 4 3 3 2 2 3 1 1 4 4 5 5 4 3 2 3 2 3 1 2 2 1 2 2 1 2 4 5 2 4 5 5 5 5 5
15 15 13 13 10 8 9 7 7 7 5 4 3 4 3 2 1 4 3 4 4 4 4 3 2 3 2 3 2 2 2 2 2 1 0 3 3 5 3 4 5 4 4
Wind_Direction
200 149 133 132 128 118 116 113 115 128 121 113 114 112 112 108 106 108 106 111 110 109 105 102 99 100 100 103 105 106 107 104 98 96 111 111 100 94 95 95 101 104 108
139 138 144 137 128 126 127 119 119 128 119 122 125 121 115 114 109 106 105 110 111 108 108 107 107 106 107 106 109 109 105 101 99 91 92 108 108 99 102 105 105 107 93
134 134 140 134 127 121 117 123 127 129 130 123 113 114 119 117 115 114 111 110 112 111 108 110 113 113 109 112 111 111 109 108 113 111 107 88 97 105 101 94 89 86 96
132 127 129 128 133 137 128 126 126 126 125 121 122 121 123 119 117 113 116 116 112 110 108 109 113 116 118 118 125 124 122 112 102 81 42 58 89 92 92 93 85 84 74
122 129 137 137 128 124 127 128 132 124 128 134 131 127 134 129 129 123 122 124 124 120 114 114 115 122 126 128 130 137 139 133 96 73 67 46 68 94 101 102 81 84 91
134 139 140 138 136 131 130 128 127 129 126 122 118 127 128 120 127 123 119 119 123 121 125 122 120 122 131 128 133 140 126 116 119 90 72 64 91 105 88 80 77 74 70
131 136 138 138 137 140 138 135 135 136 135 137 137 132 126 123 113 110 122 129 130 133 133 132 133 134 139 132 123 121 125 115 108 109 89 101 99 96 86 74 68 67 66
134 140 147 141 142 149 144 144 141 141 136 132 122 123 126 130 133 128 128 145 147 138 138 145 143 143 135 132 122 115 134 124 117 111 98 77 100 101 88 84 94 66 66
138 139 132 136 158 153 151 152 147 143 143 145 145 143 143 148 158 153 154 166 153 155 153 157 146 127 129 134 136 118 153 133 116 123 110 96 117 108 101 90 89 83 102
138 139 143 140 155 151 156 160 154 149 148 147 150 154 158 178 187 151 140 129 148 159 152 158 154 146 155 157 145 106 143 131 130 117 108 134 127 129 110 113 121 195 203
151 161 161 154 165 172 151 173 154 156 161 153 160 164 152 132 3 108 151 126 135 140 152 159 165 164 166 163 131 88 98 119 121 117 122 147 130 128 107 90 91 102 68
179 196 195 166 176 180 175 149 144 139 125 163 196 182 150 166 156 118 105 95 119 124 134 143 153 154 139 50 26 96 114 128 115 148 158 144 130 124 115 108 95 82 75
183 185 192 180 176 187 185 140 190 130 112 186 268 198 151 111 86 89 67 77 85 87 84 122 118 104 123 126 75 53 138 148 140 189 203 161 144 128 128 117 101 90 85
173 195 184 187 180 201 169 164 170 176 158 125 44 170 133 120 123 119 102 85 105 105 94 115 136 156 150 146 162 149 151 148 155 202 220 165 137 148 142 122 116 110 93
176 200 190 180 192 195 190 167 178 186 169 144 232 171 150 131 157 141 95 84 102 107 116 205 160 155 139 297 259 216 180 173 171 190 241 172 162 159 147 143 142 133 122
183 194 187 179 193 187 171 179 191 200 158 134 202 209 193 176 155 158 133 144 105 125 127 232 250 218 265 301 289 228 225 176 184 186 201 184 181 174 173 167 176 178 163
180 169 186 180 170 170 186 189 154 157 156 168 212 186 212 181 187 151 150 175 152 143 151 222 240 212 263 258 262 233 177 174 180 176 192 198 191 192 193 193 194 195 190
147 171 174 185 166 177 179 173 165 165 165 204 220 190 203 193 182 180 169 172 189 145 154 198 197 216 242 233 257 226 165 162 173 175 187 201 200 203 207 208 207 208 207
164 158 177 179 161 171 178 170 185 169 164 199 224 201 222 230 180 189 179 184 180 158 221 205 211 199 201 229 244 204 193 191 186 189 198 209 209 211 207 226 217 219 223
163 168 176 175 164 167 155 102 2 79 164 166 207 192 156 147 162 165 159 146 153 160 165 159 156 149 212 213 208 165 235 193 187 205 213 216 215 211 204 219 231 228 231
166 166 177 169 182 150 134 139 60 170 161 173 204 160 136 147 152 147 124 141 133 147 193 147 114 103 66 99 88 26 336 239 207 213 214 224 226 217 203 217 222 224 242
172 179 174 188 167 184 154 166 167 161 155 120 92 219 167 147 145 151 159 162 161 161 111 102 121 110 62 32 123 73 14 323 324 231 230 224 230 206 218 223 219 219 224
177 181 183 182 185 181 173 128 86 71 64 69 25 266 206 159 148 154 155 150 151 143 147 124 126 126 151 41 57 137 88 248 315 284 249 222 232 234 229 228 225 222 220
187 185 184 173 185 188 167 171 133 165 153 199 179 206 165 161 150 164 161 153 140 142 151 155 151 127 117 204 51 58 84 145 200 322 305 272 234 250 238 231 236 224 217
178 185 186 179 185 175 165 179 156 171 169 130 137 168 191 198 158 174 174 164 147 151 182 178 149 133 125 133 143 183 81 88 112 132 295 322 300 237 234 223 223 229 222
180 184 183 184 192 180 161 172 184 180 167 152 174 190 196 197 206 181 183 176 167 161 172 192 156 143 161 133 156 159 172 184 221 128 318 300 256 297 301 248 219 229 225